KN6KS Weather Reports


Display with metric or nautical units.
time (UTC)temp
F
wind
direction
speed
MPH
gust
MPH
rain 1hr
in
rain 24hr
in
rain mn
in
humidity
%
barometer
mb
20260502193436 83 245 1.0 1.0 0.00 0.00 0.00 20 1012.6
20260502192932 85 131 3.0 3.0 0.00 0.00 0.00 18 1012.9
20260502192429 81 200 1.0 1.0 0.00 0.00 0.00 19 1012.8
20260502191926 81 72 3.0 3.0 0.00 0.00 0.00 20 1013.0
20260502191423 82 108 3.0 3.0 0.00 0.00 0.00 20 1013.2
20260502190921 80 287 2.0 2.0 0.00 0.00 0.00 21 1013.1
20260502190418 81 96 3.0 3.0 0.00 0.00 0.00 20 1013.2
20260502185914 81 44 3.0 3.0 0.00 0.00 0.00 21 1013.2
20260502185409 82 76 3.0 5.0 0.00 0.00 0.00 21 1013.3
20260502184907 81 169 4.0 5.0 0.00 0.00 0.00 21 1013.1
20260502184402 80 50 2.0 2.0 0.00 0.00 0.00 21 1013.3
20260502183859 80 219 4.0 5.0 0.00 0.00 0.00 21 1013.6
20260502183355 80 97 3.0 3.0 0.00 0.00 0.00 20 1013.5
20260502182850 81 89 5.0 7.0 0.00 0.00 0.00 21 1013.5
20260502182346 80 147 3.0 3.0 0.00 0.00 0.00 21 1013.8
20260502181843 80 169 3.0 3.0 0.00 0.00 0.00 20 1013.6
20260502181341 79 34 3.0 3.0 0.00 0.00 0.00 22 1013.6
20260502180839 81 237 4.0 6.0 0.00 0.00 0.00 21 1013.8
20260502180330 80 174 2.0 2.0 0.00 0.00 0.00 22 1013.8
20260502170243 75 175 1.0 2.0 0.00 0.00 0.00 26 1014.3
20260502164231 72 171 0.0 0.0 0.00 0.00 0.00 29 1014.2
20260502163726 74 145 2.0 2.0 0.00 0.00 0.00 30 1014.3
20260502163223 72 221 0.0 1.0 0.00 0.00 0.00 32 1014.1
20260502162720 72 245 0.0 0.0 0.00 0.00 0.00 33 1014.3
20260502162217 70 98 3.0 3.0 0.00 0.00 0.00 33 1014.4
20260502161714 71 71 3.0 3.0 0.00 0.00 0.00 33 1014.5
20260502161210 71 169 0.0 0.0 0.00 0.00 0.00 32 1014.3
20260502160709 69 221 0.0 0.0 0.00 0.00 0.00 33 1014.3
20260502160208 69 94 2.0 3.0 0.00 0.00 0.00 34 1014.4
20260502152127 62 224 1.0 1.0 0.00 0.00 0.00 42 1014.6
20260502151624 61 217 0.0 0.0 0.00 0.00 0.00 44 1014.6
20260502151121 60 234 1.0 1.0 0.00 0.00 0.00 45 1014.7
20260502150619 59 248 3.0 3.0 0.00 0.00 0.00 46 1014.7
20260502150115 58 236 0.0 1.0 0.00 0.00 0.00 48 1014.6
20260502130503 55 226 0.0 0.0 0.00 0.00 0.00 49 1013.1
20260502123446 57 188 1.0 1.0 0.00 0.00 0.00 45 1012.9
20260502122943 57 184 3.0 3.0 0.00 0.00 0.00 44 1013.1
20260502122439 56 190 3.0 3.0 0.00 0.00 0.00 45 1012.9
20260502121937 55 191 2.0 2.0 0.00 0.00 0.00 46 1012.8
20260502121434 57 170 2.0 2.0 0.00 0.00 0.00 46 1012.8
20260502120932 57 221 0.0 0.0 0.00 0.00 0.00 44 1012.7
20260502120428 57 221 0.0 0.0 0.00 0.00 0.00 44 1012.8
20260502115925 57 222 0.0 0.0 0.00 0.00 0.00 43 1012.7
20260502115422 57 222 0.0 0.0 0.00 0.00 0.00 43 1012.6
20260502114918 58 222 0.0 0.0 0.00 0.00 0.00 42 1012.7
20260502114415 58 218 1.0 1.0 0.00 0.00 0.00 41 1012.5
20260502113912 59 200 2.0 2.0 0.00 0.00 0.00 40 1012.8
20260502113410 59 186 3.0 3.0 0.00 0.00 0.00 39 1012.7
20260502112909 59 193 3.0 3.0 0.00 0.00 0.00 39 1012.7
20260502112405 59 196 2.0 2.0 0.00 0.00 0.00 40 1012.7
20260502111903 59 187 2.0 2.0 0.00 0.00 0.00 40 1012.8
20260502111400 59 194 2.0 2.0 0.00 0.00 0.00 40 1012.6
20260502110857 59 206 1.0 1.0 0.00 0.00 0.00 41 1012.7
20260502110355 58 201 2.0 2.0 0.00 0.00 0.00 42 1012.9
20260502105852 59 216 0.0 0.0 0.00 0.00 0.00 44 1012.6
20260502105349 59 216 0.0 0.0 0.00 0.00 0.00 39 1012.7
20260502104847 59 217 1.0 1.0 0.00 0.00 0.00 41 1012.7
20260502104344 60 211 1.0 1.0 0.00 0.00 0.00 40 1012.8
20260502103841 59 226 1.0 1.0 0.00 0.00 0.00 40 1012.6
20260502103339 59 226 1.0 1.0 0.00 0.00 0.00 41 1012.6
20260502102836 59 203 0.0 0.0 0.00 0.00 0.00 39 1012.8
20260502102332 59 221 0.0 0.0 0.00 0.00 0.00 39 1012.6
20260502101830 59 226 1.0 1.0 0.00 0.00 0.00 39 1012.5
20260502101328 59 194 2.0 2.0 0.00 0.00 0.00 40 1012.6
20260502100826 59 214 0.0 1.0 0.00 0.00 0.00 41 1012.7
20260502100325 59 182 3.0 3.0 0.00 0.00 0.00 42 1012.6
20260502090252 61 273 4.0 5.0 0.00 0.00 0.00 31 1012.9
20260502071153 73 245 4.0 5.0 0.00 0.00 0.00 20 1013.3
20260502070651 73 338 8.0 9.0 0.00 0.00 0.00 19 1013.1
20260502070149 73 282 8.0 10.0 0.00 0.00 0.00 18 1013.0
20260502065647 74 306 7.0 8.0 0.00 0.00 0.00 18 1013.2
20260502065144 72 254 11.0 14.0 0.00 0.00 0.00 20 1013.2
20260502064643 72 190 6.0 7.0 0.00 0.00 0.00 21 1012.9
20260502064140 73 230 7.0 8.0 0.00 0.00 0.00 20 1013.0
20260502063638 73 191 7.0 9.0 0.00 0.00 0.00 19 1013.0
20260502063135 73 231 11.0 13.0 0.00 0.00 0.00 20 1013.0
20260502062632 73 245 10.0 10.0 0.00 0.00 0.00 20 1012.9
20260502062130 73 230 11.0 14.0 0.00 0.00 0.00 21 1012.9
20260502061628 73 241 12.0 14.0 0.00 0.00 0.00 21 1013.0
20260502061125 73 244 26.0 30.0 0.00 0.00 0.00 20 1012.9
20260502060625 72 191 8.0 9.0 0.00 0.00 0.00 22 1013.0
20260502060122 72 307 12.0 15.0 0.00 0.00 0.00 23 1013.4
20260502055620 71 275 5.0 7.0 0.00 0.00 0.00 22 1013.1
20260502055118 68 214 1.0 1.0 0.00 0.00 0.00 29 1013.1
20260502054617 69 238 3.0 3.0 0.00 0.00 0.00 31 1013.2
20260502054113 69 232 3.0 3.0 0.00 0.00 0.00 32 1013.2
20260502053610 68 353 3.0 3.0 0.00 0.00 0.00 27 1013.4
20260502053108 69 240 0.0 0.0 0.00 0.00 0.00 28 1013.2
20260502052606 68 246 1.0 1.0 0.00 0.00 0.00 32 1013.3
20260502052104 70 272 4.0 5.0 0.00 0.00 0.00 30 1013.3
20260502051602 69 8 5.0 7.0 0.00 0.00 0.00 26 1013.2
20260502051100 67 237 0.0 0.0 0.00 0.00 0.00 32 1013.0
20260502050555 68 244 1.0 2.0 0.00 0.00 0.00 31 1013.2
20260502050052 69 260 3.0 3.0 0.00 0.00 0.00 28 1013.1
20260502045549 69 319 5.0 6.0 0.00 0.00 0.00 29 1013.0
20260502045046 69 289 4.0 6.0 0.00 0.00 0.00 28 1012.9
20260502044542 69 326 9.0 11.0 0.00 0.00 0.00 27 1012.9
20260502044039 69 13 5.0 6.0 0.00 0.00 0.00 28 1012.7
20260502043537 69 342 6.0 6.0 0.00 0.00 0.00 28 1012.6
20260502043033 69 291 9.0 11.0 0.00 0.00 0.00 28 1012.6
20260502042528 70 278 3.0 3.0 0.00 0.00 0.00 26 1012.6
20260502042026 71 269 5.0 6.0 0.00 0.00 0.00 21 1012.9
20260502041523 72 278 7.0 9.0 0.00 0.00 0.00 21 1012.5
20260502041020 72 226 8.0 9.0 0.00 0.00 0.00 20 1012.1
20260502040517 72 252 13.0 15.0 0.00 0.00 0.00 19 1012.0
20260502040014 72 208 14.0 17.0 0.00 0.00 0.00 19 1011.9
20260502035510 72 206 10.0 10.0 0.00 0.00 0.00 21 1012.0
20260502035007 73 236 12.0 14.0 0.00 0.00 0.00 21 1011.9
20260502034505 72 232 11.0 13.0 0.00 0.00 0.00 22 1011.6
20260502034004 72 225 8.0 10.0 0.00 0.00 0.00 26 1011.7
20260502033501 72 236 12.0 15.0 0.00 0.00 0.00 27 1011.6
20260502032957 72 253 12.0 13.0 0.00 0.00 0.00 27 1011.4
20260502032454 72 231 11.0 14.0 0.00 0.00 0.00 29 1011.5
20260502031950 73 226 13.0 16.0 0.00 0.00 0.00 28 1011.4
20260502031449 73 251 12.0 14.0 0.00 0.00 0.00 27 1011.2
20260502030947 73 211 11.0 13.0 0.00 0.00 0.00 27 1011.2
20260502030445 72 259 21.0 23.0 0.00 0.00 0.00 29 1011.1
20260502025942 72 203 17.0 21.0 0.00 0.00 0.00 31 1011.1
20260502025439 73 259 16.0 20.0 0.00 0.00 0.00 35 1011.2
20260502024937 73 223 17.0 21.0 0.00 0.00 0.00 34 1011.0
20260502024435 73 226 13.0 16.0 0.00 0.00 0.00 35 1010.9
20260502023933 73 237 15.0 18.0 0.00 0.00 0.00 33 1011.0
20260502023430 73 233 17.0 20.0 0.00 0.00 0.00 33 1010.9
20260502022928 74 251 12.0 14.0 0.00 0.00 0.00 35 1011.0
20260502022424 74 257 13.0 17.0 0.00 0.00 0.00 37 1010.6
20260502021921 74 227 16.0 18.0 0.00 0.00 0.00 37 1010.9
20260502021418 75 244 14.0 16.0 0.00 0.00 0.00 36 1011.0
20260502020915 75 241 12.0 15.0 0.00 0.00 0.00 37 1010.9
20260502020414 75 217 14.0 17.0 0.00 0.00 0.00 36 1010.6
20260502015910 76 252 13.0 15.0 0.00 0.00 0.00 36 1010.7
20260502015408 76 238 11.0 15.0 0.00 0.00 0.00 36 1010.6
20260502014904 76 213 12.0 15.0 0.00 0.00 0.00 37 1010.7
20260502014401 77 232 13.0 15.0 0.00 0.00 0.00 36 1010.5
20260502013857 76 256 22.0 24.0 0.00 0.00 0.00 36 1010.9
20260502013352 77 245 14.0 16.0 0.00 0.00 0.00 37 1010.9
20260502012850 77 239 18.0 22.0 0.00 0.00 0.00 36 1010.7
20260502012348 77 223 17.0 22.0 0.00 0.00 0.00 35 1010.9
20260502011844 78 248 14.0 18.0 0.00 0.00 0.00 34 1010.9
20260502011340 78 230 10.0 14.0 0.00 0.00 0.00 33 1011.0
20260502010838 78 240 17.0 21.0 0.00 0.00 0.00 34 1010.9
20260502010334 78 269 12.0 21.0 0.00 0.00 0.00 34 1011.0
20260502005831 78 264 20.0 23.0 0.00 0.00 0.00 34 1010.7
20260502005329 79 246 19.0 25.0 0.00 0.00 0.00 34 1010.6
20260502004826 79 267 19.0 21.0 0.00 0.00 0.00 33 1010.9
20260502004322 79 281 12.0 14.0 0.00 0.00 0.00 33 1010.7
20260502003820 80 239 15.0 17.0 0.00 0.00 0.00 31 1010.9
20260502003317 80 232 17.0 22.0 0.00 0.00 0.00 30 1010.9
20260502002807 80 254 20.0 22.0 0.00 0.00 0.00 28 1010.6
20260502002306 80 264 17.0 22.0 0.00 0.00 0.00 27 1010.6
20260502001803 81 250 12.0 16.0 0.00 0.00 0.00 27 1010.7
20260502001300 80 272 17.0 18.0 0.00 0.00 0.00 27 1010.6
20260502000757 81 269 12.0 15.0 0.00 0.00 0.00 28 1010.9
20260502000256 81 233 17.0 21.0 0.00 0.00 0.00 27 1010.7
20260501235755 81 265 15.0 21.0 0.00 0.00 0.00 27 1010.7
20260501235252 82 251 18.0 22.0 0.00 0.00 0.00 24 1010.6
20260501234748 82 255 16.0 18.0 0.00 0.00 0.00 25 1010.7
20260501234245 82 274 9.0 10.0 0.00 0.00 0.00 25 1010.7
20260501233744 82 224 13.0 15.0 0.00 0.00 0.00 24 1010.9
20260501233241 82 257 14.0 16.0 0.00 0.00 0.00 24 1010.7
20260501232736 82 263 15.0 17.0 0.00 0.00 0.00 22 1010.9
20260501232234 82 246 15.0 18.0 0.00 0.00 0.00 23 1011.0
20260501231731 83 275 15.0 17.0 0.00 0.00 0.00 23 1010.9
20260501231229 82 257 14.0 17.0 0.00 0.00 0.00 22 1010.9
20260501230727 83 266 10.0 14.0 0.00 0.00 0.00 23 1010.9
20260501230226 83 219 15.0 18.0 0.00 0.00 0.00 23 1010.9
20260501225723 83 209 15.0 18.0 0.00 0.00 0.00 24 1011.1
20260501225220 82 251 10.0 11.0 0.00 0.00 0.00 24 1011.0
20260501224715 83 248 14.0 17.0 0.00 0.00 0.00 24 1011.1
20260501224214 82 227 11.0 14.0 0.00 0.00 0.00 23 1011.0
20260501223709 83 241 11.0 14.0 0.00 0.00 0.00 24 1011.4
20260501223206 83 243 10.0 13.0 0.00 0.00 0.00 23 1011.3
20260501222702 83 253 5.0 7.0 0.00 0.00 0.00 24 1011.3
20260501222159 83 250 3.0 6.0 0.00 0.00 0.00 23 1011.3
20260501221655 83 242 10.0 13.0 0.00 0.00 0.00 23 1011.2
20260501221153 83 241 9.0 11.0 0.00 0.00 0.00 23 1011.4
20260501220651 82 190 6.0 9.0 0.00 0.00 0.00 22 1011.5
20260501220148 83 291 3.0 6.0 0.00 0.00 0.00 20 1011.8
20260501215645 82 267 0.0 0.0 0.00 0.00 0.00 19 1011.9
20260501215140 82 276 5.0 7.0 0.00 0.00 0.00 21 1011.7
20260501214635 82 347 3.0 3.0 0.00 0.00 0.00 19 1011.8
20260501214131 83 270 5.0 6.0 0.00 0.00 0.00 20 1012.0
20260501213628 85 29 7.0 8.0 0.00 0.00 0.00 18 1012.0
20260501213124 86 126 3.0 3.0 0.00 0.00 0.00 17 1012.0
20260501212621 83 249 3.0 5.0 0.00 0.00 0.00 18 1012.0
20260501212117 84 264 3.0 3.0 0.00 0.00 0.00 17 1012.0
20260501211614 86 264 2.0 3.0 0.00 0.00 0.00 17 1012.0
20260501211112 84 228 0.0 1.0 0.00 0.00 0.00 17 1012.2
20260501210609 82 101 2.0 2.0 0.00 0.00 0.00 18 1012.4
20260501210105 82 231 1.0 2.0 0.00 0.00 0.00 18 1012.4
20260501205601 85 241 5.0 7.0 0.00 0.00 0.00 17 1012.7
20260501205059 85 198 2.0 2.0 0.00 0.00 0.00 17 1012.4
20260501204555 87 159 3.0 3.0 0.00 0.00 0.00 17 1012.2
20260501204051 84 219 2.0 2.0 0.00 0.00 0.00 18 1012.5